YAOGAN-43 02F

Last updated on Fri Oct 04 2024 00:02:03 GMT+0000 (Coordinated Universal Time)

1 60950U 24156F 24277.36536972 .00003641 00000+0 15260-3 0 9991 2 60950 34.9926 148.8617 0005734 269.3443 90.6615 15.22986151 4584

Satellite not in orbit

YAOGAN-43 02F